This is the latest recevied weather packets stored in our database for station/object WY1B. If no packets are shown the sender has not sent any weather packets the latest 10 day(s).
| Time | Temp. | Humidity | Pressure | Rain* | Wind** | Luminosity | Snow |
|---|---|---|---|---|---|---|---|
| 1787915011 | 33.33° C | 30% | 1004.8 hPa | 0 mm | - | 0 W/m² | - |
| 1787914709 | 33.33° C | 30% | 1004.9 hPa | 0 mm | - | 0 W/m² | - |
| 1787914405 | 33.33° C | 30% | 1004.7 hPa | 0 mm | - | 0 W/m² | - |
| 1787914100 | 33.33° C | 30% | 1004.7 hPa | 0 mm | - | 0 W/m² | - |
| 1787913798 | 33.33° C | 30% | 1004.8 hPa | 0 mm | - | 0 W/m² | - |
| 1787913494 | 33.33° C | 31% | 1004.8 hPa | 0 mm | - | 0 W/m² | - |
| 1787913194 | 33.33° C | 30% | 1004.5 hPa | 0 mm | - | 0 W/m² | - |
| 1787912893 | 33.33° C | 30% | 1004.6 hPa | 0 mm | - | 0 W/m² | - |
| 1787912592 | 32.78° C | 30% | 1004.6 hPa | 0 mm | - | 0 W/m² | - |
| 1787912292 | 32.22° C | 31% | 1004.4 hPa | 0 mm | - | 0 W/m² | - |
| 1787911991 | 32.78° C | 31% | 1004.1 hPa | 0 mm | - | 0 W/m² | - |
| 1787911686 | 32.78° C | 32% | 1004.1 hPa | 0 mm | - | 0 W/m² | - |
| 1787911386 | 32.78° C | 31% | 1004.1 hPa | 0 mm | - | 0 W/m² | - |
| 1787911082 | 32.78° C | 31% | 1004 hPa | 0 mm | - | 0 W/m² | - |
| 1787910777 | 32.78° C | 31% | 1004 hPa | 0 mm | - | 0 W/m² | - |
| 1787910473 | 32.78° C | 31% | 1004.1 hPa | 0 mm | - | 0 W/m² | - |
| 1787910168 | 32.78° C | 34% | 1004.1 hPa | 0 mm | - | 0 W/m² | - |
| 1787909866 | 32.78° C | 32% | 1004 hPa | 0 mm | - | 0 W/m² | - |
| 1787909565 | 32.78° C | 30% | 1003.9 hPa | 0 mm | - | 0 W/m² | - |
| 1787909260 | 32.78° C | 30% | 1004.1 hPa | 0 mm | - | 0 W/m² | - |
| 1787908955 | 32.78° C | 31% | 1003.9 hPa | 0 mm | - | 0 W/m² | - |
| 1787908654 | 32.78° C | 30% | 1004.1 hPa | 0 mm | - | 0 W/m² | - |
| 1787908354 | 32.78° C | 32% | 1004 hPa | 0 mm | - | 0 W/m² | - |
| 1787908053 | 33.33° C | 31% | 1003.8 hPa | 0 mm | - | 0 W/m² | - |
| 1787907749 | 33.33° C | 34% | 1003.9 hPa | 0 mm | - | 0 W/m² | - |
* Rain latest hour (hover to see other rain measurements)
** Current wind speed in m/s (hover to see current wind gust speed)